DW5766 Weather Reports


time (UTC)temp
C
wind
direction
speed
KPH
gust
KPH
rain 1hr
cm
rain 24hr
cm
rain mn
cm
humidity
%
barometer
mb
20260506143026 15 205 4.8 27.4 0.00 0.00 0.00 85 1010.3
20260506141523 15 169 11.3 29.0 0.00 0.00 0.00 83 1010.7
20260506140022 16 194 8.0 19.3 0.00 0.00 0.00 83 1010.6
20260506134520 16 180 9.7 25.7 0.00 0.00 0.00 84 1011.0
20260506133021 15 270 6.4 25.7 0.00 0.00 0.00 85 1011.0
20260506131528 15 144 8.0 22.5 0.00 0.00 0.00 86 1010.8
20260506130018 15 183 9.7 24.1 0.00 0.00 0.00 86 1010.8
20260506124517 15 131 8.0 20.9 0.00 0.00 0.00 85 1010.8
20260506123015 16 266 6.4 17.7 0.00 0.00 0.00 84 1010.8
20260506121513 15 178 4.8 20.9 0.00 0.00 0.00 87 1011.0
20260506120017 15 207 6.4 22.5 0.00 0.00 0.00 86 1011.1
20260506114508 15 208 8.0 27.4 0.00 0.00 0.00 87 1011.1
20260506113007 14 171 6.4 20.9 0.00 0.00 0.00 88 1011.0
20260506111504 13 221 4.8 16.1 0.00 0.00 0.00 90 1011.0
20260506110004 13 217 3.2 12.9 0.00 0.00 0.00 92 1011.1
20260506104504 13 245 3.2 14.5 0.00 0.00 0.00 92 1010.9
20260506103002 12 150 3.2 19.3 0.00 0.00 0.00 92 1010.9
20260506101620 12 138 6.4 19.3 0.00 0.00 0.00 92 1010.9
20260506100119 12 247 6.4 16.1 0.00 0.00 0.00 93 1010.9
20260506094557 12 257 3.2 17.7 0.00 0.00 0.00 92 1010.8
20260506093055 12 178 6.4 12.9 0.00 0.00 0.00 92 1010.8
20260506091554 12 247 6.4 19.3 0.00 0.00 0.00 92 1010.8
20260506090051 12 248 3.2 17.7 0.00 0.00 0.00 92 1011.0
20260506084616 12 239 4.8 17.7 0.00 0.00 0.00 91 1011.1
20260506083048 12 120 6.4 17.7 0.00 0.00 0.00 91 1011.2
20260506081552 12 264 4.8 17.7 0.00 0.00 0.00 91 1011.2
20260506073045 12 236 6.4 16.1 0.00 0.00 0.00 90 1011.4
20260506071538 13 194 9.7 22.5 0.00 0.00 0.00 90 1011.5
20260506061531 13 190 6.4 20.9 0.00 0.00 0.00 89 1011.3
20260506044548 13 242 8.0 25.7 0.00 0.00 0.00 86 1011.7
20260506043016 13 219 6.4 20.9 0.00 0.00 0.00 86 1011.8
20260506041513 14 210 6.4 20.9 0.00 0.00 0.00 85 1011.8
20260506040009 14 250 8.0 29.0 0.00 0.00 0.00 84 1011.8
20260506034523 14 259 9.7 24.1 0.00 0.00 0.00 83 1011.8
20260506033009 15 211 11.3 20.9 0.00 0.00 0.00 83 1011.7
20260506031508 15 233 9.7 24.1 0.00 0.00 0.00 83 1011.7
20260506030006 15 226 6.4 19.3 0.00 0.00 0.00 83 1011.7
20260506024507 15 194 12.9 30.6 0.00 0.00 0.00 83 1011.7
20260506023005 15 253 8.0 29.0 0.00 0.00 0.00 83 1011.8
20260506021504 15 211 8.0 22.5 0.00 0.00 0.00 82 1011.8
20260506020004 15 231 9.7 29.0 0.00 0.00 0.00 81 1011.7
20260506014503 15 233 9.7 20.9 0.00 0.00 0.00 80 1011.6
20260506013003 15 161 16.1 33.8 0.00 0.00 0.00 79 1011.4
20260506011501 15 250 11.3 29.0 0.00 0.00 0.00 78 1011.2
20260506010004 15 246 9.7 27.4 0.00 0.00 0.00 78 1011.0
20260506004631 16 29 12.9 25.7 0.00 0.00 0.00 77 1010.9
20260506003113 16 242 9.7 27.4 0.00 0.00 0.00 75 1010.8
20260506001559 16 257 14.5 41.8 0.00 0.00 0.00 75 1010.6
20260506000058 16 136 9.7 32.2 0.00 0.00 0.00 75 1010.3
20260505234635 16 254 8.0 32.2 0.00 0.00 0.00 75 1010.2
20260505233105 16 124 11.3 33.8 0.00 0.00 0.00 75 1009.8
20260505231559 16 113 12.9 29.0 0.00 0.00 0.00 75 1009.6
20260505230054 16 245 11.3 27.4 0.00 0.00 0.00 74 1009.5
20260505224553 16 228 14.5 29.0 0.00 0.00 0.00 74 1009.5
20260505223052 16 134 16.1 38.6 0.00 0.00 0.00 73 1009.3
20260505221551 17 185 12.9 48.3 0.00 0.00 0.00 72 1009.5
20260505214556 17 238 14.5 57.9 0.00 0.00 0.00 71 1009.3
20260505213052 18 130 9.7 25.7 0.00 0.00 0.00 71 1008.9
20260505211552 18 120 12.9 37.0 0.00 0.00 0.00 71 1008.8
20260505210046 18 208 12.9 27.4 0.00 0.00 0.00 70 1008.9
20260505204547 18 241 12.9 29.0 0.00 0.00 0.00 70 1008.9
20260505203043 18 243 9.7 27.4 0.00 0.00 0.00 69 1009.0
20260505201542 18 239 4.8 27.4 0.00 0.00 0.00 70 1009.1
20260505200041 19 316 8.0 17.7 0.00 0.00 0.00 69 1009.3
20260505194542 18 186 8.0 29.0 0.00 0.00 0.00 70 1009.6
20260505193043 18 174 14.5 25.7 0.00 0.00 0.00 69 1009.8
20260505191549 18 178 11.3 29.0 0.00 0.00 0.00 70 1010.0
20260505190033 18 195 9.7 25.7 0.00 0.00 0.00 71 1010.3
20260505184532 18 198 9.7 25.7 0.00 0.00 0.00 71 1010.5
20260505183030 18 176 9.7 24.1 0.00 0.00 0.00 71 1010.7
20260505181529 18 198 11.3 27.4 0.00 0.00 0.00 72 1010.8
20260505180042 18 94 9.7 27.4 0.00 0.00 0.00 72 1010.9
20260505174536 18 88 8.0 25.7 0.00 0.00 0.00 73 1010.9
20260505173026 18 200 9.7 24.1 0.00 0.00 0.00 72 1011.0
20260505171531 18 178 6.4 19.3 0.00 0.00 0.00 73 1011.1
20260505170031 18 164 9.7 20.9 0.00 0.00 0.00 71 1011.2
20260505164523 19 230 6.4 17.7 0.00 0.00 0.00 70 1011.3
20260505163022 20 235 6.4 16.1 0.00 0.00 0.00 71 1011.4
20260505161521 20 167 4.8 14.5 0.00 0.00 0.00 70 1011.6
20260505153022 19 130 4.8 12.9 0.00 0.00 0.00 70 1011.7
20260505151513 19 164 4.8 12.9 0.00 0.00 0.00 71 1012.0